"Pseudo-MPEC" for C0FN4U5

Created 2023 Feb 11 3:22:02 UT using Find_Orb

Click here for an explanation of pseudo-MPECs

 
 Astrometry: 
     C0FN4U5* C2023 01 26?XXn6ubZ$lI76O9^$hRXNn5tp2hcoj_i=]mmyMqkPb[!s^i%=sQ7V00
     C0FN4U5  C2023 01 26i=,3Jk'c9tV8!']Qj1kko[peRipD24Jr!NcWUp)\b*E\.=GS.qh$V00
     C0FN4U5  C2023 01 26\AGSe3Ai+BqHSMO#Vee;)dQk'xy5ogm,b:_MMZp2VhZ/oc2%OQt2V00
     C0FN4U5  C2023 01 26;KXBJWWsD$%a4Ex_1T'k=vUOU^PpA!(=%_NS^R2EJ+3o)r8yLUO[V00
     C0FN4U5 mC2023 01 27__??5i;jrXJW-#o9i:dt(YX:JT@Y]!B@81/S'e9r].fL#PG+cY+#V00
     C0FN4U5 mC2023 01 27)9Cbwx[ss+(La/7gdJ1AstrometryPvhZwsCVX!_rDIC]B;V'C\hV00
     C0FN4U5 mC2023 01 27-MU/k%tAVbU-[ynWfxYiue7Lm4.[A67+'p%#BX4#W,KWc70CZ+9FV00
     C0FN4U5 mC2023 01 27vf91NNRe]F6=#p_[^mjh$TY4Q:@j:0-'9[ZW!qW7hZaMpFjc62gDV00
     C0FN4U5 mC2023 01 28ku+v@yl*,twh.UiYfZHGAO=AsZ2+GVw#,\S\F0htb0\qSo]gq^cGV00
     C0FN4U5 mC2023 01 28U*@5L]MI:3+nmAnWdB?tX6(MtoE2Xlhcf#Y8:`;UM!#@BKR,mq[KV00
     C0FN4U5 mC2023 01 28.=x\2wnECredacted;\b0:AHT\dcce@*ak\H8-]coQ29176sGP;oV00
     C0FN4U5 mC2023 01 29_Q3:RCx:h4b'BEjkE`w1TwCkg8r1aWu3WMVUgyD)@(J1M1.9?_60V00
     C0FN4U5 mC2023 01 29M,Erc48ikf!-yyk%?sOP!:9:3x*CKjypb=LwUBuw];vNtoG#FHr9V00
     C0FN4U5 mC2023 01 29+7)ck(3Sy`*UVM*r$ggU;;J=rJejc\v!\%'aQ[ak?pGlsKh:]UPNV00
     C0FN4U5 mC2023 01 29!@rVn?8M]tii/*ZN(ATUFvpLZ%4SWTLv0to#-Qkv`O0click4)8/V00
     C0FN4U5 mC2023 02 11]nU4'nC^\Qo7#E!QoXS/xRoMb*VU9n#I(APPh2o^IL]%$R71hereV00
     C0FN4U5 mC2023 02 11.G0`p7#Tn2HiqDdGt(j,x(0Je5(rLnM$AxoDR=0Yyq#csQEc^CEHV00
     C0FN4U5 mC2023 02 11H07*\=xckV*iL(Ai8forv#7mZT@explanation2y)Jw(rEm/)OL\V00
     C0FN4U5 mC2023 02 118q8B:$\b2e-%EaF1a)[^2-]%@.CG:oCU3HkOd#:r\:3\%tfa2RnIV00

Station data:
(V00) Kitt Peak-Bok  (N31.963125 W111.600190)  US/Arizona.  Observers T. A.
   Pruyne, B. M. Africano, E. J. Christensen, G. A. Farneth, D. C. Fuls, A.
   R. Gibbs, A. D. Grauer, H. Gröller, J. A. Johnson, R. A. Kowalski, S. M.
   Larson, G. J. Leonard, D. Rankin, R. L. Seaman, F. C. Shelly, K. W.
   Wierzchoś. 2.25-m reflector + CCD.

Orbital elements:  C0FN4U5
   Perihelion 2023 Apr 8.23600 +/- 0.00545 TT =  5:39:50 (JD 2460042.73600)
Epoch 2023 Feb 11.0 TT = JDT 2459986.5   Earth MOID: 0.0841   Ve: 0.0320
M 343.49539517 +/- 0.13             Ma: 0.0708                   AutoNEOCP
n   0.29348825 +/- 0.00241          Peri.  301.34924 +/- 0.041
a   2.24255049 +/- 0.0123           Node   270.78864 +/- 0.015
e   0.7133277 +/- 0.0022            Incl.   12.11980 +/- 0.07
P   3.36                   H 22.33  G  0.15   U  8.7
q 0.64287701 +/- 0.00141    Q 3.84222397 +/- 0.0259       (J2000 ecliptic)
From 19 observations 2023 Jan. 26-Feb. 11; mean residual 0".32
Residuals in arcseconds: 
230126 V00  .35-  .72+    230127 V00  .05+  .06-    230129 V00  .05+  .72+    
230126 V00  .05+  .33-    230128 V00  .52+  .46-    230211 V00  .11-  .14-    
230126 V00  .01-  .47-    230128 V00  .09-  .25+    230211 V00  .18-  .28+    
230126 V00  .18+  .23+    230128 V00  .03+  .40+    230211 V00  .15-  .15+    
230127 V00  .06+  .75-    230129 V00  .37-  .42-    230211 V00  .46+  .30-    
230127 V00  .02-  .33+    230129 V00  .11+  .31-    
230127 V00  .01+  .02-    230129 V00  .14-  .11+    

Ephemerides (geocentric):
Date (UTC) HH   RA             Dec           delta  r     elong  mag " sig PA
---- --------  ------------   ------------  ------ ------ -----  --- --------
2023 02 11 03  03 59 56.233   +04 47 28.30  .43785 1.1261  96.8 23.0 .052  66
2023 02 11 04  03 59 50.282   +04 46 24.04  .43777 1.1256  96.7 23.0 .037  72
2023 02 11 05  03 59 44.335   +04 45 19.77  .43770 1.1251  96.7 23.0 .022  88
2023 02 11 06  03 59 38.391   +04 44 15.50  .43763 1.1246  96.6 23.0 .013 137
2023 02 11 07  03 59 32.450   +04 43 11.22  .43755 1.1241  96.5 23.0 .021  12
2023 02 11 08  03 59 26.513   +04 42 06.94  .43748 1.1236  96.5 23.0 .036  30
2023 02 11 09  03 59 20.580   +04 41 02.65  .43741 1.1232  96.4 23.0 .052  37
2023 02 11 10  03 59 14.650   +04 39 58.36  .43733 1.1227  96.3 23.0 .070  41
2023 02 11 11  03 59 08.723   +04 38 54.06  .43726 1.1222  96.3 23.0 .087  43
2023 02 11 12  03 59 02.800   +04 37 49.76  .43719 1.1217  96.2 23.0 .105  44
2023 02 11 13  03 58 56.880   +04 36 45.45  .43711 1.1212  96.1 23.0 .123  46
2023 02 11 14  03 58 50.963   +04 35 41.13  .43704 1.1207  96.1 23.0 .142  46
2023 02 11 15  03 58 45.050   +04 34 36.81  .43697 1.1202  96.0 23.0 .160  47
2023 02 11 16  03 58 39.140   +04 33 32.48  .43689 1.1198  95.9 23.0 .179  48
2023 02 11 17  03 58 33.234   +04 32 28.15  .43682 1.1193  95.8 23.0 .198  48
2023 02 11 18  03 58 27.331   +04 31 23.81  .43675 1.1188  95.8 23.0 .217  48
2023 02 11 19  03 58 21.431   +04 30 19.46  .43667 1.1183  95.7 23.0 .237  49
2023 02 11 20  03 58 15.534   +04 29 15.11  .43660 1.1178  95.6 23.0 .257  49
2023 02 11 21  03 58 09.641   +04 28 10.75  .43653 1.1173  95.6 23.0 .277  49
2023 02 11 22  03 58 03.751   +04 27 06.38  .43645 1.1168  95.5 23.0 .297  50
2023 02 11 23  03 57 57.864   +04 26 02.01  .43638 1.1163  95.4 23.0 .317  50
2023 02 12 00  03 57 51.981   +04 24 57.64  .43630 1.1159  95.4 23.0 .338  50
2023 02 12 01  03 57 46.100   +04 23 53.25  .43623 1.1154  95.3 23.0 .359  50
2023 02 12 02  03 57 40.223   +04 22 48.86  .43616 1.1149  95.2 23.0 .380  50
2023 02 12 03  03 57 34.349   +04 21 44.47  .43608 1.1144  95.2 23.0 .401  51
2023 02 12 04  03 57 28.479   +04 20 40.06  .43601 1.1139  95.1 23.0 .423  51
2023 02 12 05  03 57 22.611   +04 19 35.65  .43594 1.1134  95.0 23.0 .444  51
2023 02 12 06  03 57 16.747   +04 18 31.23  .43586 1.1129  95.0 23.0 .466  51
2023 02 12 07  03 57 10.885   +04 17 26.81  .43579 1.1124  94.9 23.0 .489  51
2023 02 12 08  03 57 05.027   +04 16 22.38  .43572 1.1120  94.8 23.0 .511  51
2023 02 12 09  03 56 59.172   +04 15 17.94  .43564 1.1115  94.8 23.0 .534  51
2023 02 12 10  03 56 53.320   +04 14 13.50  .43557 1.1110  94.7 23.0 .557  51
2023 02 12 11  03 56 47.472   +04 13 09.05  .43549 1.1105  94.6 23.0 .580  52
2023 02 12 12  03 56 41.626   +04 12 04.59  .43542 1.1100  94.5 23.0 .603  52
2023 02 12 13  03 56 35.783   +04 11 00.13  .43535 1.1095  94.5 23.0 .627  52
2023 02 12 14  03 56 29.943   +04 09 55.65  .43527 1.1090  94.4 23.0 .651  52
2023 02 12 15  03 56 24.107   +04 08 51.18  .43520 1.1085  94.3 23.0 .675  52
2023 02 12 16  03 56 18.273   +04 07 46.69  .43512 1.1081  94.3 23.0 .699  52
2023 02 12 17  03 56 12.442   +04 06 42.20  .43505 1.1076  94.2 23.0 .724  52
2023 02 12 18  03 56 06.615   +04 05 37.69  .43498 1.1071  94.1 23.0 .749  52
2023 02 12 19  03 56 00.790   +04 04 33.19  .43490 1.1066  94.1 23.0 .774  52
2023 02 12 20  03 55 54.968   +04 03 28.67  .43483 1.1061  94.0 23.0 .799  52
2023 02 12 21  03 55 49.150   +04 02 24.15  .43475 1.1056  93.9 23.0 .825  52
2023 02 12 22  03 55 43.334   +04 01 19.62  .43468 1.1051  93.9 23.0 .850  53
2023 02 12 23  03 55 37.521   +04 00 15.08  .43461 1.1046  93.8 23.0 .877  53
2023 02 13 00  03 55 31.711   +03 59 10.53  .43453 1.1042  93.7 23.0 .903  53
2023 02 13 01  03 55 25.903   +03 58 05.98  .43446 1.1037  93.7 23.0 .929  53
2023 02 13 02  03 55 20.099   +03 57 01.41  .43438 1.1032  93.6 23.0 .956  53